User: anonymous   Login
Location: Unspecified
(0.0000°N, 0.0000°E)
Time: 22:48:55
(UTC+01:00)
Language:

Meteor PRIRODA - Orbit

View from above orbital plane
View from above orbital plane
View from above satellite
View from above satellite

Ground track
Ground track

The orbit data is extracted from the following two-line orbital elements,

1 12585U 81065A   16338.14134555  .00001011  00000-0  50067-4 0  9995
2 12585  97.4084 314.6172 0015289  11.9713 348.1882 15.19949487932483
Epoch (UTC): 03 December 2016 03:23:32
Eccentricity: 0.0015289
inclination: 97.4084°
perigee height: 495 km
apogee height: 516 km
right ascension of ascending node: 314.6172°
argument of perigee: 11.9713°
revolutions per day: 15.19949487
mean anomaly at epoch: 348.1882°
orbit number at epoch: 93248

The dashed part of the orbit path shows where the satellite is in the earth's shadow,  

DLR